Location: Makanda
(37.6176°N, 89.2090°W)
Time: 20:47:30
(UTC+00:00)

Cosmos 1627 Rocket - Pass Details

Date: 23 September 2019
Orbit: 950 x 1004 km, 82.9° (Epoch: 15 October)

Event Time Altitude Azimuth Distance (km) Brightness Sun altitude
Exits shadow 09:26:54 68° 281° (W) 1,074 4.4 -27.5°
Drops below altitude 10° 09:33:14 10° 1° (N) 2,784 7.1 -26.3°
Sets 09:35:48 0° 4° (N) 3,738 7.9 -25.9°
